Harlan, IA

5:07 AM CST on December 13, 2019 (GMT -0600)
Harlan Municipal

Weather History for KHNR - October, 2019

Change the Weather History Date:

Monday, October 28, 2019

  Actual Average Record
Temperature  
Mean Temperature 32 °F -  
Max Temperature 37 °F 56 °F 82 °F (2016)
Min Temperature 26 °F 35 °F 15 °F (1967)
Degree Days  
Heating Degree Days 34    
Moisture  
Dew Point 21 °F    
Average Humidity 68    
Maximum Humidity 100    
Minimum Humidity 33    
Precipitation  
Precipitation 0.00 in - - ()
Sea Level Pressure  
Sea Level Pressure 30.15 in    
Wind  
Wind Speed 9 mph ()    
Max Wind Speed 18 mph    
Max Gust Speed 23 mph    
Visibility 8.5 miles    
Events Snow    
Averages and records for this station are not official NWS values.
T = Trace of Precipitation, MM = Missing Value Source: Averaged Metar Reports

Daily Weather History Graph

Daily Weather History Graph

Search for Another Location

Airport or City:

Astronomy

Oct. 28, 2019 Rise Set
Actual Time 7:48 AM CDT 6:21 PM CDT
Civil Twilight 7:19 AM CDT 6:50 PM CDT
Nautical Twilight 6:47 AM CDT 7:22 PM CDT
Astronomical Twilight 6:14 AM CDT 7:54 PM CDT
Moon 8:10 AM CDT (10/28) 7:07 PM CDT (10/28)
Length of Visible Light 11h 30m
Length of Day
10h 33m
New Moon, 0% of the Moon is Illuminated
Oct 28
New Moon
Nov 4
First Quarter
Nov 12
Full
Nov 19
Last Quarter
Nov 26
New

Hourly Weather History & Observations

Time (CDT) Temp. Windchill Dew Point Humidity Pressure Visibility Wind Dir Wind Speed Gust Speed Precip Events Conditions
12:15 AM 35.6 °F 26.2 °F 26.6 °F 70% 30.14 in 10.0 mi NNW 15.0 mph - N/A   Overcast
12:35 AM 35.6 °F 25.2 °F 24.8 °F 65% 30.14 in 10.0 mi NNW 18.4 mph - N/A   Overcast
12:55 AM 33.8 °F 24.3 °F 24.8 °F 70% 30.15 in 10.0 mi NNW 13.8 mph 23.0 mph N/A   Overcast
1:15 AM 33.8 °F 24.3 °F 24.8 °F 70% 30.15 in 10.0 mi NNW 13.8 mph - N/A   Overcast
1:35 AM 33.8 °F 23.9 °F 24.8 °F 70% 30.15 in 10.0 mi NNW 15.0 mph 23.0 mph N/A   Overcast
1:55 AM 33.8 °F 23.9 °F 24.8 °F 70% 30.15 in 10.0 mi NNW 15.0 mph - N/A   Overcast
2:15 AM 33.8 °F 24.3 °F 23.0 °F 65% 30.16 in 10.0 mi NNW 13.8 mph - N/A   Overcast
2:35 AM 33.8 °F 24.8 °F 24.8 °F 70% 30.16 in 10.0 mi NW 12.7 mph - N/A   Overcast
2:55 AM 33.8 °F 23.5 °F 23.0 °F 65% 30.17 in 10.0 mi NNW 16.1 mph - N/A   Overcast
3:15 AM 32.0 °F 23.0 °F 23.0 °F 69% 30.17 in 10.0 mi NNW 11.5 mph 17.3 mph N/A   Overcast
3:35 AM 32.0 °F 23.0 °F 23.0 °F 69% 30.17 in 10.0 mi NNW 11.5 mph - N/A   Overcast
3:55 AM 32.0 °F 21.6 °F 23.0 °F 69% 30.16 in 10.0 mi NNW 15.0 mph - N/A   Overcast
4:15 AM 32.0 °F 21.6 °F 21.2 °F 64% 30.16 in 10.0 mi NNW 15.0 mph - N/A   Overcast
4:55 AM 32.0 °F 23.0 °F 19.4 °F 60% 30.16 in 10.0 mi North 11.5 mph 17.3 mph N/A   Overcast
5:15 AM 32.0 °F 23.0 °F 19.4 °F 60% 30.16 in 10.0 mi NNW 11.5 mph - N/A   Overcast
5:35 AM 32.0 °F 26.4 °F 21.2 °F 64% 30.16 in 10.0 mi NNW 5.8 mph - N/A   Overcast
5:55 AM 30.2 °F 23.4 °F 21.2 °F 69% 30.17 in 10.0 mi North 6.9 mph - N/A   Overcast
6:15 AM 30.2 °F 22.6 °F 21.2 °F 69% 30.17 in 10.0 mi NNW 8.1 mph - N/A   Overcast
6:55 AM 30.2 °F 22.6 °F 21.2 °F 69% 30.18 in 10.0 mi NNW 8.1 mph - N/A   Overcast
7:15 AM 30.2 °F 23.4 °F 21.2 °F 69% 30.18 in 10.0 mi NNW 6.9 mph - N/A   Overcast
7:35 AM 28.4 °F 22.2 °F 21.2 °F 74% 30.18 in 10.0 mi NNW 5.8 mph - N/A   Mostly Cloudy
7:55 AM 26.6 °F 21.2 °F 21.2 °F 80% 30.18 in 10.0 mi NW 4.6 mph - N/A   Clear
8:15 AM 26.6 °F - 21.2 °F 80% 30.18 in 10.0 mi Calm Calm - N/A   Clear
8:35 AM 26.6 °F 21.2 °F 23.0 °F 86% 30.18 in 10.0 mi NNW 4.6 mph - N/A   Clear
8:55 AM 28.4 °F 23.3 °F 23.0 °F 80% 30.18 in 10.0 mi NNW 4.6 mph - N/A   Clear
9:15 AM 28.4 °F 22.2 °F 23.0 °F 80% 30.18 in 10.0 mi NNW 5.8 mph - N/A   Clear
9:35 AM 28.4 °F 22.2 °F 23.0 °F 80% 30.19 in 10.0 mi NW 5.8 mph - N/A   Clear
10:15 AM 30.2 °F 24.3 °F 19.4 °F 64% 30.18 in 10.0 mi North 5.8 mph - N/A   Clear
10:35 AM 32.0 °F 26.4 °F 19.4 °F 60% 30.18 in 10.0 mi North 5.8 mph - N/A   Clear
10:55 AM 32.0 °F 26.4 °F 17.6 °F 55% 30.17 in 10.0 mi North 5.8 mph - N/A   Clear
11:15 AM 33.8 °F 28.6 °F 15.8 °F 48% 30.17 in 10.0 mi North 5.8 mph - N/A   Clear
12:35 PM 35.6 °F 30.7 °F 12.2 °F 38% 30.16 in 10.0 mi NW 5.8 mph 12.7 mph N/A   Clear
12:55 PM 35.6 °F 29.9 °F 10.4 °F 35% 30.15 in 10.0 mi NW 6.9 mph 12.7 mph N/A   Clear
1:15 PM 35.6 °F 28.6 °F 12.2 °F 38% 30.13 in 10.0 mi NNW 9.2 mph - N/A   Clear
1:35 PM 35.6 °F 29.2 °F 14.0 °F 41% 30.12 in 10.0 mi NNW 8.1 mph - N/A   Clear
1:55 PM 35.6 °F 30.7 °F 14.0 °F 41% 30.11 in 10.0 mi NNW 5.8 mph - N/A   Clear
2:15 PM 35.6 °F 30.7 °F 12.2 °F 38% 30.10 in 10.0 mi NNW 5.8 mph 12.7 mph N/A   Scattered Clouds
2:35 PM 37.4 °F - 12.2 °F 36% 30.10 in 10.0 mi Calm Calm - N/A   Overcast
2:55 PM 37.4 °F 32.1 °F 12.2 °F 36% 30.10 in 10.0 mi NNW 6.9 mph - N/A   Overcast
3:15 PM 37.4 °F 32.1 °F 12.2 °F 36% 30.09 in 10.0 mi WNW 6.9 mph - N/A   Overcast
3:35 PM 37.4 °F 31.4 °F 12.2 °F 36% 30.08 in 10.0 mi NW 8.1 mph - N/A   Overcast
3:55 PM 37.4 °F 32.8 °F 10.4 °F 33% 30.08 in 10.0 mi NNW 5.8 mph 11.5 mph N/A   Overcast
4:35 PM 35.6 °F 29.9 °F 12.2 °F 38% 30.09 in 10.0 mi NNW 6.9 mph - N/A   Overcast
4:55 PM 35.6 °F 29.2 °F 14.0 °F 41% 30.09 in 10.0 mi NNW 8.1 mph - N/A   Scattered Clouds
5:15 PM 35.6 °F 28.0 °F 12.2 °F 38% 30.09 in 10.0 mi NW 10.4 mph - N/A   Clear
5:35 PM 35.6 °F 30.7 °F 12.2 °F 38% 30.09 in 10.0 mi NNW 5.8 mph - N/A   Scattered Clouds
5:55 PM 35.6 °F 30.7 °F 12.2 °F 38% 30.09 in 10.0 mi NNW 5.8 mph - N/A   Mostly Cloudy
6:15 PM 33.8 °F 27.0 °F 15.8 °F 48% 30.10 in 10.0 mi NNW 8.1 mph 16.1 mph N/A   Overcast
6:35 PM 33.8 °F 27.7 °F 21.2 °F 60% 30.11 in 7.0 mi NNW 6.9 mph 13.8 mph N/A Snow Light Snow
6:55 PM 30.2 °F 19.8 °F 26.6 °F 86% 30.11 in 3.0 mi NW 13.8 mph - N/A Snow Light Snow
7:15 PM 28.4 °F 19.1 °F 28.4 °F 100% 30.12 in 2.5 mi NW 10.4 mph - N/A Snow Light Snow
7:35 PM 28.4 °F 22.2 °F 28.4 °F 100% 30.12 in 1.5 mi NNW 5.8 mph - N/A Snow Light Snow
7:55 PM 28.4 °F 22.2 °F 28.4 °F 100% 30.12 in 1.8 mi NNW 5.8 mph - N/A Snow Light Snow
8:15 PM 28.4 °F 22.2 °F 28.4 °F 100% 30.13 in 1.5 mi NNW 5.8 mph - N/A Snow Light Snow
8:35 PM 28.4 °F 23.3 °F 28.4 °F 100% 30.13 in 1.8 mi NNW 4.6 mph - N/A Snow Light Snow
8:55 PM 28.4 °F - 28.4 °F 100% 30.14 in 2.5 mi Calm Calm - N/A Snow Light Snow
9:15 PM 28.4 °F - 28.4 °F 100% 30.15 in 3.0 mi Calm Calm - N/A Snow Light Snow
9:35 PM 28.4 °F 24.6 °F 28.4 °F 100% 30.15 in 2.0 mi NW 3.5 mph - N/A Snow Light Snow
9:55 PM 28.4 °F 22.2 °F 28.4 °F 100% 30.15 in 1.5 mi NW 5.8 mph - N/A Snow Light Snow
10:15 PM 28.4 °F 22.2 °F 28.4 °F 100% 30.17 in 3.0 mi NW 5.8 mph - N/A Snow Light Snow
10:35 PM 28.4 °F 22.2 °F 28.4 °F 100% 30.17 in 3.0 mi NW 5.8 mph - N/A Snow Light Snow
10:55 PM 28.4 °F 23.3 °F 28.4 °F 100% 30.18 in 6.0 mi NW 4.6 mph - N/A Snow Light Snow
11:15 PM 28.4 °F 24.6 °F 28.4 °F 100% 30.19 in 10.0 mi WNW 3.5 mph - N/A   Overcast
11:35 PM 28.4 °F 24.6 °F 28.4 °F 100% 30.18 in 10.0 mi WNW 3.5 mph - N/A   Scattered Clouds
11:55 PM 26.6 °F 21.2 °F 26.6 °F 100% 30.18 in 10.0 mi NW 4.6 mph - N/A   Partly Cloudy